OPS 7329

operational
NORAD ID: 4510 Int'l Des: 1970-069 Owner: SAMSO Country: US
HEOELLIPTICAL

Über OPS 7329

Beschreibung wird geladen...

Live-Position

3D-Globus wird geladen...

Nächste Überflüge

Höhenverlauf

Altitude vs Time

uPlot chart will show altitude changes over time

Zweizeiliger Elementsatz

1 04510U 70069A 26062.18725145 -.00000298 00000-0 00000-0 0 9991
2 04510 10.5404 160.4270 1015283 105.3617 252.8636 1.00177417 23723
Epoch: 3. März 2026 • Age: 30 hours

Aktueller Status

Höhe 35647.6 km
Geschwindigkeit 3.09 km/s
Subsatellitenpunkt 2.17°N, 81.87°W
Typ other

Große Konstellationen

Loading constellations...